Time,TemperatureF,DewpointF,PressureIn,WindDirection,WindDirectionDegrees,WindSpeedMPH,WindSpeedGustMPH,Humidity,HourlyPrecipIn,Conditions,Clouds,dailyrainin,SoftwareType,DateUTC
2013-09-18 00:04:00,82.8,66.9,29.96,SSE,160,1.0,9.0,59,0.00,,,0.00,meteohub,2013-09-18 05:04:00,
2013-09-18 00:10:00,82.6,67.3,29.96,SSE,167,1.0,7.0,60,0.00,,,0.00,meteohub,2013-09-18 05:10:00,
2013-09-18 00:16:00,82.6,67.3,29.96,South,169,7.0,7.0,60,0.00,,,0.00,meteohub,2013-09-18 05:16:00,
2013-09-18 00:21:00,82.2,66.9,29.96,SSE,151,6.0,7.0,60,0.00,,,0.00,meteohub,2013-09-18 05:21:00,
2013-09-18 00:27:00,82.2,67.5,29.95,SE,144,2.0,8.0,61,0.00,,,0.00,meteohub,2013-09-18 05:27:00,
2013-09-18 00:32:00,82.0,67.3,29.95,SSE,155,3.0,8.0,61,0.00,,,0.00,meteohub,2013-09-18 05:32:00,
2013-09-18 00:37:00,82.0,67.3,29.95,SSE,155,3.0,7.0,61,0.00,,,0.00,meteohub,2013-09-18 05:37:00,
2013-09-18 00:42:00,81.9,67.1,29.95,SSE,159,5.0,7.0,61,0.00,,,0.00,meteohub,2013-09-18 05:42:00,
2013-09-18 00:47:00,81.9,67.1,29.96,SSE,163,1.0,6.0,61,0.00,,,0.00,meteohub,2013-09-18 05:47:00,
2013-09-18 00:52:00,81.7,67.5,29.96,SSE,164,2.0,6.0,62,0.00,,,0.00,meteohub,2013-09-18 05:52:00,
2013-09-18 00:57:00,81.7,67.5,29.95,South,173,2.0,7.0,62,0.00,,,0.00,meteohub,2013-09-18 05:57:00,
2013-09-18 01:02:00,81.5,67.3,29.96,SSE,155,3.0,7.0,62,0.00,,,0.00,meteohub,2013-09-18 06:02:00,
2013-09-18 01:07:00,81.3,67.1,29.96,SSE,163,2.0,7.0,62,0.00,,,0.00,meteohub,2013-09-18 06:07:00,
2013-09-18 01:12:00,81.1,66.9,29.96,SSE,160,3.0,7.0,62,0.00,,,0.00,meteohub,2013-09-18 06:12:00,
2013-09-18 01:17:00,81.1,67.3,29.96,South,173,3.0,8.0,63,0.00,,,0.00,meteohub,2013-09-18 06:17:00,
2013-09-18 01:22:00,81.1,67.3,29.96,SSE,168,2.0,8.0,63,0.00,,,0.00,meteohub,2013-09-18 06:22:00,
2013-09-18 01:27:00,81.1,67.3,29.96,South,179,2.0,8.0,63,0.00,,,0.00,meteohub,2013-09-18 06:27:00,
2013-09-18 01:32:00,81.0,67.1,29.96,South,179,3.0,8.0,63,0.00,,,0.00,meteohub,2013-09-18 06:32:00,
2013-09-18 01:37:00,81.0,67.1,29.96,South,179,1.0,6.0,63,0.00,,,0.00,meteohub,2013-09-18 06:37:00,
2013-09-18 01:42:00,81.0,67.1,29.96,South,179,1.0,4.0,63,0.00,,,0.00,meteohub,2013-09-18 06:42:00,
2013-09-18 01:47:00,81.0,67.1,29.96,South,179,2.0,4.0,63,0.00,,,0.00,meteohub,2013-09-18 06:47:00,
2013-09-18 01:52:00,80.8,66.9,29.96,South,179,3.0,4.0,63,0.00,,,0.00,meteohub,2013-09-18 06:52:00,
2013-09-18 01:57:00,80.6,66.9,29.96,South,179,1.0,4.0,63,0.00,,,0.00,meteohub,2013-09-18 06:57:00,
2013-09-18 02:02:00,80.4,67.1,29.96,South,179,0.0,4.0,64,0.00,,,0.00,meteohub,2013-09-18 07:02:00,
2013-09-18 02:08:00,80.2,66.9,29.96,South,179,1.0,4.0,64,0.00,,,0.00,meteohub,2013-09-18 07:08:00,
2013-09-18 02:13:00,80.2,66.9,29.96,South,179,4.0,5.0,64,0.00,,,0.00,meteohub,2013-09-18 07:13:00,
2013-09-18 02:19:00,80.1,66.7,29.96,South,179,5.0,5.0,64,0.00,,,0.00,meteohub,2013-09-18 07:19:00,
2013-09-18 02:25:00,80.1,67.3,29.96,South,170,4.0,6.0,65,0.00,,,0.00,meteohub,2013-09-18 07:25:00,
2013-09-18 02:30:00,79.9,67.1,29.96,South,172,4.0,7.0,65,0.00,,,0.00,meteohub,2013-09-18 07:30:00,
2013-09-18 02:36:00,79.9,67.1,29.95,South,173,4.0,7.0,65,0.00,,,0.00,meteohub,2013-09-18 07:36:00,
2013-09-18 02:42:00,79.7,66.9,29.95,SSE,167,1.0,5.0,65,0.00,,,0.00,meteohub,2013-09-18 07:42:00,
2013-09-18 02:48:00,79.7,66.9,29.95,SSE,168,2.0,5.0,65,0.00,,,0.00,meteohub,2013-09-18 07:48:00,
2013-09-18 02:53:00,79.5,66.7,29.95,SSE,167,1.0,5.0,65,0.00,,,0.00,meteohub,2013-09-18 07:53:00,
2013-09-18 02:59:00,79.5,66.7,29.95,SSE,168,2.0,6.0,65,0.00,,,0.00,meteohub,2013-09-18 07:59:00,
2013-09-18 03:04:00,79.5,66.7,29.95,South,169,2.0,6.0,65,0.00,,,0.00,meteohub,2013-09-18 08:04:00,
2013-09-18 03:09:00,79.3,66.6,29.95,South,169,2.0,6.0,65,0.00,,,0.00,meteohub,2013-09-18 08:09:00,
2013-09-18 03:15:00,79.3,66.9,29.94,South,174,2.0,6.0,66,0.00,,,0.00,meteohub,2013-09-18 08:15:00,
2013-09-18 03:22:00,79.3,66.9,29.94,South,174,1.0,5.0,66,0.00,,,0.00,meteohub,2013-09-18 08:22:00,
2013-09-18 03:27:00,79.3,66.9,29.94,South,173,2.0,5.0,66,0.00,,,0.00,meteohub,2013-09-18 08:27:00,
2013-09-18 03:32:00,79.2,66.7,29.94,South,172,3.0,5.0,66,0.00,,,0.00,meteohub,2013-09-18 08:32:00,
2013-09-18 03:38:00,79.2,66.7,29.94,South,172,2.0,5.0,66,0.00,,,0.00,meteohub,2013-09-18 08:38:00,
2013-09-18 03:43:00,79.2,66.7,29.94,South,172,1.0,5.0,66,0.00,,,0.00,meteohub,2013-09-18 08:43:00,
2013-09-18 03:49:00,79.2,66.7,29.94,South,172,1.0,4.0,66,0.00,,,0.00,meteohub,2013-09-18 08:49:00,
2013-09-18 03:56:00,79.0,66.6,29.94,South,172,1.0,4.0,66,0.00,,,0.00,meteohub,2013-09-18 08:56:00,
2013-09-18 04:02:00,78.8,66.6,29.94,South,172,1.0,4.0,66,0.00,,,0.00,meteohub,2013-09-18 09:02:00,
2013-09-18 04:07:00,78.8,66.9,29.94,South,172,0.0,4.0,67,0.00,,,0.00,meteohub,2013-09-18 09:07:00,
2013-09-18 04:12:00,78.6,66.7,29.94,South,172,1.0,4.0,67,0.00,,,0.00,meteohub,2013-09-18 09:12:00,
2013-09-18 04:18:00,78.4,66.6,29.94,South,172,2.0,4.0,67,0.00,,,0.00,meteohub,2013-09-18 09:18:00,
2013-09-18 04:24:00,78.4,66.6,29.94,South,172,0.0,4.0,67,0.00,,,0.00,meteohub,2013-09-18 09:24:00,
2013-09-18 04:31:00,78.4,66.6,29.93,South,172,1.0,3.0,67,0.00,,,0.00,meteohub,2013-09-18 09:31:00,
2013-09-18 04:36:00,78.4,66.6,29.93,South,172,1.0,2.0,67,0.00,,,0.00,meteohub,2013-09-18 09:36:00,
2013-09-18 04:42:00,78.3,66.4,29.93,South,172,0.0,4.0,67,0.00,,,0.00,meteohub,2013-09-18 09:42:00,
2013-09-18 04:47:00,78.3,66.4,29.93,South,172,1.0,4.0,67,0.00,,,0.00,meteohub,2013-09-18 09:47:00,
2013-09-18 04:52:00,78.3,66.4,29.93,South,172,1.0,4.0,67,0.00,,,0.00,meteohub,2013-09-18 09:52:00,
2013-09-18 04:57:00,78.3,66.4,29.93,South,172,0.0,3.0,67,0.00,,,0.00,meteohub,2013-09-18 09:57:00,
2013-09-18 05:02:00,78.3,66.4,29.93,South,172,3.0,3.0,67,0.00,,,0.00,meteohub,2013-09-18 10:02:00,
2013-09-18 05:07:00,78.3,66.4,29.93,South,172,0.0,3.0,67,0.00,,,0.00,meteohub,2013-09-18 10:07:00,
2013-09-18 05:13:00,78.3,66.4,29.93,South,172,0.0,3.0,67,0.00,,,0.00,meteohub,2013-09-18 10:13:00,
2013-09-18 05:18:00,78.3,66.4,29.93,South,172,0.0,3.0,67,0.00,,,0.00,meteohub,2013-09-18 10:18:00,
2013-09-18 05:24:00,78.3,66.7,29.93,South,172,2.0,2.0,68,0.00,,,0.00,meteohub,2013-09-18 10:24:00,
2013-09-18 05:30:00,78.3,66.7,29.93,South,172,1.0,2.0,68,0.00,,,0.00,meteohub,2013-09-18 10:30:00,
2013-09-18 05:35:00,78.1,66.7,29.93,South,172,0.0,2.0,68,0.00,,,0.00,meteohub,2013-09-18 10:35:00,
2013-09-18 05:41:00,77.9,66.6,29.93,South,172,2.0,3.0,68,0.00,,,0.00,meteohub,2013-09-18 10:41:00,
2013-09-18 05:47:00,77.9,66.6,29.94,South,172,1.0,3.0,68,0.00,,,0.00,meteohub,2013-09-18 10:47:00,
2013-09-18 05:53:00,77.7,66.7,29.93,South,172,0.0,2.0,69,0.00,,,0.00,meteohub,2013-09-18 10:53:00,
2013-09-18 05:58:00,77.7,66.7,29.93,South,172,0.0,2.0,69,0.00,,,0.00,meteohub,2013-09-18 10:58:00,
2013-09-18 06:04:00,77.5,66.6,29.94,South,172,1.0,3.0,69,0.00,,,0.00,meteohub,2013-09-18 11:04:00,
2013-09-18 06:09:00,77.5,66.6,29.94,South,172,2.0,3.0,69,0.00,,,0.00,meteohub,2013-09-18 11:09:00,
2013-09-18 06:15:00,77.4,66.7,29.94,South,172,1.0,3.0,70,0.00,,,0.00,meteohub,2013-09-18 11:15:00,
2013-09-18 06:20:00,77.4,66.7,29.94,South,172,0.0,3.0,70,0.00,,,0.00,meteohub,2013-09-18 11:20:00,
2013-09-18 06:27:00,77.4,66.7,29.94,South,172,2.0,2.0,70,0.00,,,0.00,meteohub,2013-09-18 11:27:00,
2013-09-18 06:32:00,77.4,66.7,29.95,South,172,1.0,2.0,70,0.00,,,0.00,meteohub,2013-09-18 11:32:00,
2013-09-18 06:37:00,77.4,66.7,29.95,South,172,0.0,3.0,70,0.00,,,0.00,meteohub,2013-09-18 11:37:00,
2013-09-18 06:42:00,77.2,66.6,29.95,South,172,1.0,3.0,70,0.00,,,0.00,meteohub,2013-09-18 11:42:00,
2013-09-18 06:47:00,77.2,66.6,29.95,South,172,1.0,3.0,70,0.00,,,0.00,meteohub,2013-09-18 11:47:00,
2013-09-18 06:53:00,77.2,67.1,29.95,South,172,0.0,2.0,71,0.00,,,0.00,meteohub,2013-09-18 11:53:00,
2013-09-18 07:00:00,77.0,66.9,29.95,South,172,0.0,3.0,71,0.00,,,0.00,meteohub,2013-09-18 12:00:00,
2013-09-18 07:06:00,77.0,66.9,29.96,South,172,0.0,2.0,71,0.00,,,0.00,meteohub,2013-09-18 12:06:00,
2013-09-18 07:12:00,76.8,66.7,29.96,South,172,0.0,1.0,71,0.00,,,0.00,meteohub,2013-09-18 12:12:00,
2013-09-18 07:17:00,76.8,66.7,29.96,South,172,1.0,1.0,71,0.00,,,0.00,meteohub,2013-09-18 12:17:00,
2013-09-18 07:24:00,76.8,67.1,29.96,South,172,2.0,3.0,72,0.00,,,0.00,meteohub,2013-09-18 12:24:00,
2013-09-18 07:30:00,76.8,67.1,29.96,South,172,3.0,3.0,72,0.00,,,0.00,meteohub,2013-09-18 12:30:00,
2013-09-18 07:37:00,76.8,67.1,29.97,South,172,2.0,3.0,72,0.00,,,0.00,meteohub,2013-09-18 12:37:00,
2013-09-18 07:42:00,76.8,66.7,29.96,South,172,2.0,3.0,71,0.00,,,0.00,meteohub,2013-09-18 12:42:00,
2013-09-18 07:47:00,77.2,67.1,29.97,South,173,3.0,5.0,71,0.00,,,0.00,meteohub,2013-09-18 12:47:00,
2013-09-18 07:54:00,77.4,67.3,29.97,South,173,1.0,5.0,71,0.00,,,0.00,meteohub,2013-09-18 12:54:00,
2013-09-18 07:59:00,77.5,67.5,29.97,South,173,2.0,5.0,71,0.00,,,0.00,meteohub,2013-09-18 12:59:00,
2013-09-18 08:06:00,77.7,67.1,29.97,South,173,2.0,6.0,70,0.00,,,0.00,meteohub,2013-09-18 13:06:00,
2013-09-18 08:12:00,78.1,67.5,29.97,South,173,1.0,6.0,70,0.00,,,0.00,meteohub,2013-09-18 13:12:00,
2013-09-18 08:21:00,78.4,67.8,29.97,South,173,2.0,4.0,70,0.00,,,0.00,meteohub,2013-09-18 13:21:00,
2013-09-18 08:31:00,78.8,67.8,29.98,South,172,4.0,7.0,69,0.00,,,0.00,meteohub,2013-09-18 13:31:00,
2013-09-18 08:55:00,79.7,68.5,29.98,South,177,3.0,6.0,69,0.00,,,0.00,meteohub,2013-09-18 13:55:00,
2013-09-18 09:01:00,79.9,68.7,29.98,SSW,199,3.0,6.0,69,0.00,,,0.00,meteohub,2013-09-18 14:01:00,
2013-09-18 09:07:00,80.2,69.1,29.98,SSW,198,3.0,6.0,69,0.00,,,0.00,meteohub,2013-09-18 14:07:00,
2013-09-18 09:12:00,80.4,68.9,29.98,SSW,209,2.0,6.0,68,0.00,,,0.00,meteohub,2013-09-18 14:12:00,
2013-09-18 09:22:00,81.3,69.8,29.99,SW,228,3.0,8.0,68,0.00,,,0.00,meteohub,2013-09-18 14:22:00,
2013-09-18 09:34:00,82.0,70.3,29.99,SW,225,4.0,8.0,68,0.00,,,0.00,meteohub,2013-09-18 14:34:00,
2013-09-18 09:41:00,82.6,70.9,29.99,SSW,199,1.0,7.0,68,0.00,,,0.00,meteohub,2013-09-18 14:41:00,
2013-09-18 09:56:00,82.9,70.9,29.99,West,263,2.0,7.0,67,0.00,,,0.00,meteohub,2013-09-18 14:56:00,
2013-09-18 10:01:00,83.7,71.6,30.00,SSW,194,3.0,7.0,67,0.00,,,0.00,meteohub,2013-09-18 15:01:00,
2013-09-18 10:08:00,84.2,71.6,30.00,WSW,238,0.0,6.0,66,0.00,,,0.00,meteohub,2013-09-18 15:08:00,
2013-09-18 10:16:00,84.7,71.2,30.00,WSW,238,11.0,11.0,64,0.00,,,0.00,meteohub,2013-09-18 15:16:00,
2013-09-18 10:24:00,85.3,70.7,30.00,WSW,238,2.0,11.0,62,0.00,,,0.00,meteohub,2013-09-18 15:24:00,
2013-09-18 10:33:00,86.0,71.1,30.00,West,259,5.0,11.0,61,0.00,,,0.00,meteohub,2013-09-18 15:33:00,
2013-09-18 10:41:00,86.5,71.1,30.00,SW,214,5.0,8.0,60,0.00,,,0.00,meteohub,2013-09-18 15:41:00,
2013-09-18 10:49:00,87.1,70.5,30.00,WSW,237,3.0,8.0,58,0.00,,,0.00,meteohub,2013-09-18 15:49:00,
2013-09-18 10:54:00,87.3,70.7,30.00,WSW,240,6.0,9.0,58,0.00,,,0.00,meteohub,2013-09-18 15:54:00,
2013-09-18 11:01:00,87.3,70.7,30.00,WSW,238,12.0,12.0,58,0.00,,,0.00,meteohub,2013-09-18 16:01:00,
2013-09-18 11:02:00,87.3,70.2,30.00,WSW,250,4.0,10.0,57,0.00,,,0.00,meteohub,2013-09-18 16:02:00,
2013-09-18 11:09:00,88.0,70.3,30.00,West,259,3.0,13.0,56,0.00,,,0.00,meteohub,2013-09-18 16:09:00,
2013-09-18 11:14:00,88.2,70.0,30.00,SW,234,5.0,13.0,55,0.00,,,0.00,meteohub,2013-09-18 16:14:00,
2013-09-18 11:20:00,88.2,70.0,29.99,SSW,194,7.0,16.0,55,0.00,,,0.00,meteohub,2013-09-18 16:20:00,
2013-09-18 11:27:00,89.1,70.2,29.99,SW,223,3.0,16.0,54,0.00,,,0.00,meteohub,2013-09-18 16:27:00,
2013-09-18 11:32:00,89.2,69.8,29.99,SSW,206,7.0,12.0,53,0.00,,,0.00,meteohub,2013-09-18 16:32:00,
2013-09-18 11:42:00,89.2,69.8,29.99,SW,234,9.0,11.0,53,0.00,,,0.00,meteohub,2013-09-18 16:42:00,
2013-09-18 11:47:00,89.1,69.1,29.99,WSW,240,6.0,12.0,52,0.00,,,0.00,meteohub,2013-09-18 16:47:00,
2013-09-18 11:53:00,89.8,69.3,29.98,SW,235,3.0,14.0,51,0.00,,,0.00,meteohub,2013-09-18 16:53:00,
2013-09-18 12:00:00,90.3,68.5,29.98,WSW,243,14.0,14.0,49,0.00,,,0.00,meteohub,2013-09-18 17:00:00,
2013-09-18 12:05:00,90.3,69.1,29.98,South,184,4.0,18.0,50,0.00,,,0.00,meteohub,2013-09-18 17:05:00,
2013-09-18 12:11:00,90.9,69.1,29.98,SW,231,6.0,18.0,49,0.00,,,0.00,meteohub,2013-09-18 17:11:00,
2013-09-18 12:17:00,90.9,69.1,29.98,WSW,238,8.0,18.0,49,0.00,,,0.00,meteohub,2013-09-18 17:17:00,
2013-09-18 12:24:00,91.0,69.3,29.97,SSW,207,3.0,16.0,49,0.00,,,0.00,meteohub,2013-09-18 17:24:00,
2013-09-18 12:35:00,91.6,69.1,29.97,SSW,193,7.0,14.0,48,0.00,,,0.00,meteohub,2013-09-18 17:35:00,
2013-09-18 12:42:00,92.1,68.9,29.96,SSE,150,6.0,13.0,47,0.00,,,0.00,meteohub,2013-09-18 17:42:00,
2013-09-18 12:56:00,92.5,68.7,29.96,South,180,8.0,12.0,46,0.00,,,0.00,meteohub,2013-09-18 17:56:00,
2013-09-18 13:06:00,92.1,67.6,29.96,SSE,165,6.0,15.0,45,0.00,,,0.00,meteohub,2013-09-18 18:06:00,
2013-09-18 13:12:00,92.5,68.7,29.95,SSW,198,6.0,15.0,46,0.00,,,0.00,meteohub,2013-09-18 18:12:00,
2013-09-18 13:21:00,92.5,68.0,29.95,SE,140,5.0,17.0,45,0.00,,,0.00,meteohub,2013-09-18 18:21:00,
2013-09-18 13:29:00,92.7,68.2,29.95,SSW,207,5.0,17.0,45,0.00,,,0.00,meteohub,2013-09-18 18:29:00,
2013-09-18 13:34:00,92.8,68.4,29.94,SW,222,3.0,13.0,45,0.00,,,0.00,meteohub,2013-09-18 18:34:00,
2013-09-18 13:41:00,93.4,67.5,29.94,South,188,4.0,14.0,43,0.00,,,0.00,meteohub,2013-09-18 18:41:00,
2013-09-18 13:47:00,93.7,67.8,29.94,South,182,10.0,14.0,43,0.00,,,0.00,meteohub,2013-09-18 18:47:00,
2013-09-18 13:54:00,94.6,68.7,29.94,South,175,10.0,11.0,43,0.00,,,0.00,meteohub,2013-09-18 18:54:00,
2013-09-18 14:01:00,94.6,68.0,29.93,SSE,155,10.0,14.0,42,0.00,,,0.00,meteohub,2013-09-18 19:01:00,
2013-09-18 14:08:00,94.1,67.5,29.93,SE,130,2.0,14.0,42,0.00,,,0.00,meteohub,2013-09-18 19:08:00,
2013-09-18 14:14:00,94.3,66.9,29.93,SSW,198,9.0,17.0,41,0.00,,,0.00,meteohub,2013-09-18 19:14:00,
2013-09-18 14:22:00,93.6,66.4,29.92,SSW,202,5.0,13.0,41,0.00,,,0.00,meteohub,2013-09-18 19:22:00,
2013-09-18 14:27:00,93.6,66.4,29.92,SSE,150,12.0,13.0,41,0.00,,,0.00,meteohub,2013-09-18 19:27:00,
2013-09-18 14:37:00,94.3,65.5,29.91,SSE,155,5.0,13.0,39,0.00,,,0.00,meteohub,2013-09-18 19:37:00,
2013-09-18 14:46:00,95.2,65.5,29.91,SSE,150,5.0,15.0,38,0.00,,,0.00,meteohub,2013-09-18 19:46:00,
2013-09-18 14:51:00,94.6,65.8,29.91,South,181,3.0,15.0,39,0.00,,,0.00,meteohub,2013-09-18 19:51:00,
2013-09-18 14:57:00,94.3,65.5,29.90,South,174,8.0,18.0,39,0.00,,,0.00,meteohub,2013-09-18 19:57:00,
2013-09-18 15:09:00,94.6,64.4,29.90,SE,146,10.0,19.0,37,0.00,,,0.00,meteohub,2013-09-18 20:09:00,
2013-09-18 15:16:00,94.6,64.4,29.89,SSE,167,3.0,14.0,37,0.00,,,0.00,meteohub,2013-09-18 20:16:00,
2013-09-18 15:24:00,94.3,64.0,29.89,SW,228,4.0,14.0,37,0.00,,,0.00,meteohub,2013-09-18 20:24:00,
2013-09-18 15:29:00,94.3,64.0,29.89,South,170,6.0,17.0,37,0.00,,,0.00,meteohub,2013-09-18 20:29:00,
2013-09-18 15:42:00,94.8,63.7,29.88,SSE,157,7.0,15.0,36,0.00,,,0.00,meteohub,2013-09-18 20:42:00,
2013-09-18 15:51:00,94.1,64.6,29.88,SSE,153,8.0,19.0,38,0.00,,,0.00,meteohub,2013-09-18 20:51:00,
2013-09-18 15:57:00,93.9,64.4,29.88,SSE,167,6.0,19.0,38,0.00,,,0.00,meteohub,2013-09-18 20:57:00,
2013-09-18 16:02:00,93.6,64.2,29.88,South,183,5.0,19.0,38,0.00,,,0.00,meteohub,2013-09-18 21:02:00,
2013-09-18 16:11:00,93.6,64.2,29.87,SSE,156,7.0,14.0,38,0.00,,,0.00,meteohub,2013-09-18 21:11:00,
2013-09-18 16:17:00,93.7,62.8,29.87,South,173,10.0,12.0,36,0.00,,,0.00,meteohub,2013-09-18 21:17:00,
2013-09-18 16:23:00,93.9,63.0,29.87,South,183,4.0,14.0,36,0.00,,,0.00,meteohub,2013-09-18 21:23:00,
2013-09-18 16:32:00,94.1,61.5,29.87,SSE,151,2.0,14.0,34,0.00,,,0.00,meteohub,2013-09-18 21:32:00,
2013-09-18 16:38:00,94.1,62.2,29.86,SSE,163,9.0,17.0,35,0.00,,,0.00,meteohub,2013-09-18 21:38:00,
2013-09-18 16:44:00,93.9,61.3,29.86,SSW,192,7.0,17.0,34,0.00,,,0.00,meteohub,2013-09-18 21:44:00,
2013-09-18 16:58:00,94.6,61.9,29.86,SSE,157,7.0,15.0,34,0.00,,,0.00,meteohub,2013-09-18 21:58:00,
2013-09-18 17:08:00,94.3,63.1,29.86,South,188,5.0,14.0,36,0.00,,,0.00,meteohub,2013-09-18 22:08:00,
2013-09-18 17:15:00,93.9,62.1,29.86,South,183,4.0,14.0,35,0.00,,,0.00,meteohub,2013-09-18 22:15:00,
2013-09-18 17:24:00,93.9,62.1,29.86,SSE,168,6.0,11.0,35,0.00,,,0.00,meteohub,2013-09-18 22:24:00,
2013-09-18 17:35:00,94.5,62.6,29.85,SW,221,7.0,12.0,35,0.00,,,0.00,meteohub,2013-09-18 22:35:00,
2013-09-18 17:47:00,94.8,63.0,29.85,SSW,198,2.0,13.0,35,0.00,,,0.00,meteohub,2013-09-18 22:47:00,
2013-09-18 17:55:00,95.0,63.1,29.85,South,176,3.0,13.0,35,0.00,,,0.00,meteohub,2013-09-18 22:55:00,
2013-09-18 18:02:00,94.6,62.8,29.85,SSE,150,5.0,13.0,35,0.00,,,0.00,meteohub,2013-09-18 23:02:00,
2013-09-18 18:14:00,93.7,62.8,29.85,SSE,163,9.0,15.0,36,0.00,,,0.00,meteohub,2013-09-18 23:14:00,
2013-09-18 18:27:00,93.0,63.7,29.85,SE,136,7.0,17.0,38,0.00,,,0.00,meteohub,2013-09-18 23:27:00,
2013-09-18 18:35:00,92.7,63.3,29.85,SSE,155,5.0,15.0,38,0.00,,,0.00,meteohub,2013-09-18 23:35:00,
2013-09-18 18:41:00,92.5,63.1,29.85,SSE,156,8.0,14.0,38,0.00,,,0.00,meteohub,2013-09-18 23:41:00,
2013-09-18 18:47:00,92.5,63.1,29.85,SSE,152,3.0,14.0,38,0.00,,,0.00,meteohub,2013-09-18 23:47:00,
2013-09-18 19:02:00,91.9,63.5,29.85,SSE,165,5.0,13.0,39,0.00,,,0.00,meteohub,2013-09-19 00:02:00,
2013-09-18 19:09:00,91.8,63.3,29.85,SSE,164,4.0,13.0,39,0.00,,,0.00,meteohub,2013-09-19 00:09:00,
2013-09-18 19:15:00,91.6,63.1,29.85,SE,132,7.0,13.0,39,0.00,,,0.00,meteohub,2013-09-19 00:15:00,
2013-09-18 19:32:00,90.9,63.1,29.85,SSE,163,2.0,10.0,40,0.00,,,0.00,meteohub,2013-09-19 00:32:00,
2013-09-18 19:37:00,90.7,63.0,29.85,SSE,154,4.0,8.0,40,0.00,,,0.00,meteohub,2013-09-19 00:37:00,
2013-09-18 19:44:00,90.3,63.5,29.85,SSE,156,3.0,8.0,41,0.00,,,0.00,meteohub,2013-09-19 00:44:00,
2013-09-18 19:51:00,90.0,63.1,29.85,SSE,157,5.0,5.0,41,0.00,,,0.00,meteohub,2013-09-19 00:51:00,
2013-09-18 19:57:00,89.8,63.7,29.85,SSE,163,4.0,6.0,42,0.00,,,0.00,meteohub,2013-09-19 00:57:00,
2013-09-18 20:05:00,89.4,63.3,29.86,South,171,2.0,6.0,42,0.00,,,0.00,meteohub,2013-09-19 01:05:00,
2013-09-18 20:12:00,89.2,63.9,29.86,SSE,165,2.0,6.0,43,0.00,,,0.00,meteohub,2013-09-19 01:12:00,
2013-09-18 20:18:00,89.1,63.7,29.86,SSE,163,5.0,6.0,43,0.00,,,0.00,meteohub,2013-09-19 01:18:00,
2013-09-18 20:26:00,88.9,63.5,29.86,SSE,158,2.0,6.0,43,0.00,,,0.00,meteohub,2013-09-19 01:26:00,
2013-09-18 20:32:00,88.7,63.3,29.87,South,169,3.0,6.0,43,0.00,,,0.00,meteohub,2013-09-19 01:32:00,
2013-09-18 20:41:00,88.3,63.7,29.87,South,169,2.0,5.0,44,0.00,,,0.00,meteohub,2013-09-19 01:41:00,
2013-09-18 20:50:00,88.2,63.5,29.87,South,169,2.0,4.0,44,0.00,,,0.00,meteohub,2013-09-19 01:50:00,
2013-09-18 20:57:00,87.8,63.9,29.87,South,169,3.0,4.0,45,0.00,,,0.00,meteohub,2013-09-19 01:57:00,
2013-09-18 21:03:00,87.4,63.5,29.87,South,169,2.0,4.0,45,0.00,,,0.00,meteohub,2013-09-19 02:03:00,
2013-09-18 21:11:00,87.3,64.0,29.88,South,169,0.0,3.0,46,0.00,,,0.00,meteohub,2013-09-19 02:11:00,
2013-09-18 21:19:00,86.9,63.7,29.88,South,169,1.0,3.0,46,0.00,,,0.00,meteohub,2013-09-19 02:19:00,
2013-09-18 21:25:00,86.5,63.9,29.88,South,169,0.0,2.0,47,0.00,,,0.00,meteohub,2013-09-19 02:25:00,
2013-09-18 21:34:00,86.2,63.5,29.89,South,169,1.0,2.0,47,0.00,,,0.00,meteohub,2013-09-19 02:34:00,
2013-09-18 21:41:00,86.0,64.0,29.89,South,169,0.0,3.0,48,0.00,,,0.00,meteohub,2013-09-19 02:41:00,
2013-09-18 21:49:00,85.6,63.7,29.89,South,169,0.0,3.0,48,0.00,,,0.00,meteohub,2013-09-19 02:49:00,
2013-09-18 21:55:00,85.5,63.5,29.89,South,169,1.0,3.0,48,0.00,,,0.00,meteohub,2013-09-19 02:55:00,
2013-09-18 22:00:00,85.3,64.0,29.90,South,169,0.0,3.0,49,0.00,,,0.00,meteohub,2013-09-19 03:00:00,
2013-09-18 22:08:00,84.9,63.7,29.90,South,169,1.0,3.0,49,0.00,,,0.00,meteohub,2013-09-19 03:08:00,
2013-09-18 22:23:00,84.7,63.5,29.90,South,169,1.0,3.0,49,0.00,,,0.00,meteohub,2013-09-19 03:23:00,
2013-09-18 22:32:00,84.6,63.3,29.90,South,169,0.0,4.0,49,0.00,,,0.00,meteohub,2013-09-19 03:32:00,
2013-09-18 22:44:00,84.4,63.7,29.90,South,169,2.0,4.0,50,0.00,,,0.00,meteohub,2013-09-19 03:44:00,
2013-09-18 22:50:00,84.2,64.0,29.90,South,169,1.0,4.0,51,0.00,,,0.00,meteohub,2013-09-19 03:50:00,
2013-09-18 23:01:00,83.8,63.9,29.91,South,169,1.0,3.0,51,0.00,,,0.00,meteohub,2013-09-19 04:01:00,
2013-09-18 23:02:00,83.8,63.9,29.91,South,169,2.0,3.0,51,0.00,,,0.00,meteohub,2013-09-19 04:02:00,
2013-09-18 23:03:00,83.8,64.4,29.91,South,169,2.0,3.0,52,0.00,,,0.00,meteohub,2013-09-19 04:03:00,
2013-09-18 23:06:00,83.7,64.2,29.91,South,169,2.0,3.0,52,0.00,,,0.00,meteohub,2013-09-19 04:06:00,
2013-09-18 23:10:00,83.5,64.0,29.91,South,169,3.0,4.0,52,0.00,,,0.00,meteohub,2013-09-19 04:10:00,
2013-09-18 23:11:00,83.5,64.0,29.91,South,169,1.0,4.0,52,0.00,,,0.00,meteohub,2013-09-19 04:11:00,
2013-09-18 23:17:00,83.1,64.2,29.91,South,169,4.0,4.0,53,0.00,,,0.00,meteohub,2013-09-19 04:17:00,
2013-09-18 23:22:00,82.9,64.0,29.91,South,169,2.0,5.0,53,0.00,,,0.00,meteohub,2013-09-19 04:22:00,
2013-09-18 23:27:00,82.8,63.9,29.90,South,169,1.0,5.0,53,0.00,,,0.00,meteohub,2013-09-19 04:27:00,
2013-09-18 23:32:00,82.6,64.2,29.91,South,169,3.0,5.0,54,0.00,,,0.00,meteohub,2013-09-19 04:32:00,
2013-09-18 23:37:00,82.4,64.0,29.91,South,169,2.0,3.0,54,0.00,,,0.00,meteohub,2013-09-19 04:37:00,
2013-09-18 23:42:00,82.2,63.9,29.91,South,169,1.0,3.0,54,0.00,,,0.00,meteohub,2013-09-19 04:42:00,
2013-09-18 23:47:00,82.2,64.4,29.91,South,169,1.0,4.0,55,0.00,,,0.00,meteohub,2013-09-19 04:47:00,
2013-09-18 23:52:00,82.0,64.2,29.91,South,180,3.0,8.0,55,0.00,,,0.00,meteohub,2013-09-19 04:52:00,
2013-09-18 23:57:00,82.2,64.4,29.91,SSW,205,5.0,8.0,55,0.00,,,0.00,meteohub,2013-09-19 04:57:00,